パンスターズ彗星

P/2015 HG16 ( PanSTARRS ) 2024

English version
Home page
Updated on April 16, 2023

---------------------------------------------------------------------

・ プロフィール

・ 軌道要素

Epoch 2024 Oct. 17.0 TT = JDT 2460600.5                                         
T 2024 Oct. 16.00419 TT                                 Rudenko                 
q   3.1232898            (2000.0)            P               Q                  
n   0.09433691     Peri.   46.74947     -0.20523417     -0.93978130             
a   4.7791239      Node    57.05190     +0.77682132     -0.32627550             
e   0.3464723      Incl.   19.00649     +0.59533821     +0.10176153             
P  10.4                                                                         
From 46 observations 2015 Jan. 14-2018 July 14, mean residual 0".6.             

・ 光度変化

        m1 = 12.5 + 5 logΔ + 10.0 log r

---------------------------------------------------------------------

軌道要素はM.P.E.C. 2020-S188に掲載されたものです。
光度グラフはComet for Windowsで作成したものです。

---------------------------------------------------------------------

Copyright(C) Seiichi Yoshida (comet@aerith.net). All rights reserved.